Simultaneous Nadir Overpasses (SNOs) Predictions

Prediction of SNOs between LANDSAT-8 and METOP-B Satellite Orbit:

Table of predicted SNOs for the next 14.0 days since TLE Epoch: 11/22/2014
Index Date (LANDSAT-8) Time (LANDSAT-8) Lat,Lon (LANDSAT-8) SZA (LANDSAT-8 ) Date (METOP-B) Time (METOP-B) Lat,Lon (METOP-B) SZA (METOP-B ) Distance(km) Time Diff (sec)
1 11/22/2014 21:44:30 81.04,-107.52 103.46 11/22/2014 21:43:24 81.04,-107.59 103.43 1.23 66
2 11/22/2014 22:33:55 -81.07, 60.66 76.46 11/22/2014 22:34:03 -81.07, 60.51 76.47 2.67 8
3 11/25/2014 17:18:46 81.05, -40.91 104.03 11/25/2014 17:17:48 81.05, -40.94 104.00 0.46 58
4 11/25/2014 18:08:12 -81.06, 126.95 75.93 11/25/2014 18:08:28 -81.06, 126.84 75.94 2.02 16
5 11/28/2014 12:53:04 81.06, 25.63 104.54 11/28/2014 12:52:12 81.05, 25.62 104.52 0.28 52
6 11/28/2014 13:42:30 -81.07,-166.47 75.42 11/28/2014 13:42:52 -81.07,-166.56 75.42 1.65 22
7 12/01/2014 08:27:23 81.06, 92.09 104.98 12/01/2014 08:26:35 81.05, 92.10 104.96 0.39 48
8 12/01/2014 09:16:49 -81.08, -99.96 74.97 12/01/2014 09:17:15 -81.07,-100.05 74.97 1.73 26
9 12/04/2014 04:01:45 81.06, 158.49 105.36 12/04/2014 04:00:59 81.05, 158.48 105.34 0.49 46




NCC Satellite Simultaneous Nadir Overpasses (SNOs) Prediction Service
